TimeMDT,TemperatureF,Dew PointF,Humidity,Sea Level PressureIn,VisibilityMPH,Wind Direction,Wind SpeedMPH,Gust SpeedMPH,PrecipitationIn,Events,Conditions,WindDirDegrees,DateUTC
12:53 AM,43.0,30.0,60,29.80,10.0,ENE,4.6,-,N/A,,Clear,70,2013-03-17 06:53:00
1:53 AM,36.0,26.1,67,29.81,10.0,North,5.8,-,N/A,,Clear,10,2013-03-17 07:53:00
2:53 AM,34.0,26.1,73,29.81,10.0,NNE,4.6,-,N/A,,Clear,30,2013-03-17 08:53:00
3:53 AM,34.0,27.0,75,29.79,10.0,ENE,6.9,-,N/A,,Clear,60,2013-03-17 09:53:00
4:53 AM,37.9,28.0,68,29.77,10.0,East,10.4,-,N/A,,Clear,80,2013-03-17 10:53:00
5:53 AM,37.0,28.0,70,29.77,10.0,ENE,6.9,-,N/A,,Clear,60,2013-03-17 11:53:00
6:53 AM,39.0,28.0,65,29.77,10.0,East,11.5,-,N/A,,Mostly Cloudy,90,2013-03-17 12:53:00
7:53 AM,39.9,28.9,65,29.81,10.0,NE,9.2,-,N/A,,Overcast,40,2013-03-17 13:53:00
8:53 AM,42.1,30.0,62,29.80,10.0,ENE,9.2,-,N/A,,Overcast,60,2013-03-17 14:53:00
9:53 AM,46.0,30.0,54,29.81,10.0,North,4.6,-,N/A,,Mostly Cloudy,350,2013-03-17 15:53:00
10:53 AM,53.1,28.9,40,29.79,10.0,West,5.8,-,N/A,,Clear,270,2013-03-17 16:53:00
11:53 AM,59.0,26.1,28,29.75,10.0,WNW,13.8,23.0,N/A,,Clear,290,2013-03-17 17:53:00
12:53 PM,61.0,19.9,21,29.73,10.0,WNW,19.6,32.2,N/A,,Clear,290,2013-03-17 18:53:00
1:53 PM,62.1,19.0,19,29.72,10.0,West,17.3,27.6,N/A,,Clear,270,2013-03-17 19:53:00
2:53 PM,64.0,10.9,13,29.68,10.0,WNW,24.2,33.4,N/A,,Clear,290,2013-03-17 20:53:00
3:53 PM,63.0,3.0,9,29.66,10.0,West,34.5,47.2,N/A,,Clear,280,2013-03-17 21:53:00
4:53 PM,63.0,5.0,10,29.65,10.0,NW,29.9,39.1,N/A,,Clear,310,2013-03-17 22:53:00
5:53 PM,61.0,6.1,11,29.69,10.0,WNW,21.9,38.0,N/A,,Clear,300,2013-03-17 23:53:00
6:53 PM,59.0,8.1,13,29.70,10.0,WNW,20.7,31.1,N/A,,Clear,290,2013-03-18 00:53:00
7:53 PM,55.9,9.0,15,29.72,10.0,West,16.1,-,N/A,,Partly Cloudy,280,2013-03-18 01:53:00
8:26 PM,53.6,10.4,18,29.80,10.0,NNW,18.4,29.9,N/A,,Partly Cloudy,330,2013-03-18 02:26:00
8:53 PM,52.0,10.9,19,29.76,10.0,NNW,17.3,-,N/A,,Clear,330,2013-03-18 02:53:00
9:53 PM,50.0,10.0,20,29.81,10.0,NW,10.4,-,N/A,,Clear,320,2013-03-18 03:53:00
10:53 PM,46.0,10.0,23,29.82,10.0,NW,6.9,-,N/A,,Clear,310,2013-03-18 04:53:00
11:53 PM,42.1,10.0,27,29.83,10.0,WSW,8.1,-,N/A,,Clear,240,2013-03-18 05:53:00